Location: Buenos Aires
(34.6076°S, 58.4371°W)
Time: 12:35:11
(UTC-03:00)

Envisat - Pass Details

Date: 26 June 2021
Orbit: 764 x 766 km, 98.2° (Epoch: 03 August)

Event Time Altitude Azimuth Distance (km) Brightness Sun altitude
Rises 06:04:19 0° 355° (N) 3,216 6.3 -23.3°
Reaches altitude 10° 06:06:44 10° 347° (NNW) 2,299 5.5 -22.9°
Enters shadow 06:10:11 33° 311° (NW) 1,269 3.8 -22.2°
